[[{"header":{"parameterUnit":"m.s-1","parameterCategory":1,"la1":30.2991,"la2":30.254,"lo1":-89.0895,"lo2":-89.0444,"dy":0.0017,"dx":0.0017,"nx":28,"ny":28,"refTime":"2025-04-16T09:00:00:Z","depth":0,"parameterNumber":2,"parameterNumberName":"U-component_of_WINDS"},"data":[0,0,0,0,0,0,0,0,0,0,0,0,0,0,0,0,0,0,0,0,0,0,0,0,0,0,0,0,0,0,0,0,0,0,0,0,0,0,0,0,0,0,0,0,0,0,0,0,0,0,0,0,0,0,0,0,0,0,-0.2745,-0.2744,0,-0.2733,-0.2733,-0.2733,-0.2729,-0.2729,-0.2729,-0.2729,-0.2719,-0.2718,-0.2718,0,0,0,0,0,0,0,0,0,0,0,0,0,-0.2766,-0.2765,-0.2745,-0.2744,-0.2744,-0.2733,-0.2733,-0.2733,-0.2729,-0.2729,-0.2729,-0.2729,-0.2719,-0.2718,-0.2718,0,0,0,0,0,0,0,0,0,0,0,0,0,-0.2756,-0.2765,-0.2745,-0.2741,-0.2741,-0.2733,-0.2733,-0.2733,-0.2729,-0.2729,-0.2729,-0.2729,-0.2719,-0.2718,-0.2718,-0.2713,0,0,-0.2716,-0.2716,0,0,0,0,0,0,0,0,-0.2756,-0.2755,-0.2742,-0.2741,-0.2741,-0.2733,-0.2736,-0.2726,-0.2729,-0.2733,-0.2729,-0.2729,-0.2723,-0.2722,-0.272,-0.2713,-0.2712,-0.2716,-0.2716,-0.2716,-0.2716,0,0,0,0,0,0,0,-0.2757,-0.2755,-0.274,-0.2742,-0.2741,-0.2741,-0.2739,-0.2734,-0.2728,-0.2733,-0.2733,-0.2731,-0.2723,-0.2721,-0.272,-0.2712,-0.2716,-0.2716,-0.2716,-0.2715,-0.2702,-0.2702,0,0,0,0,0,0,-0.2758,-0.2756,-0.274,-0.274,-0.2749,-0.274,-0.2739,-0.2735,-0.2728,-0.2727,-0.2731,-0.2731,-0.2721,-0.272,-0.2719,-0.2715,-0.2716,-0.2715,-0.2715,-0.2702,-0.2702,-0.2702,0,0,0,0,0,0,-0.2758,-0.2756,-0.2741,-0.2748,-0.2746,-0.274,-0.2736,-0.2735,-0.2732,-0.2727,-0.2726,-0.273,-0.2721,-0.272,-0.2715,-0.2714,-0.2715,-0.2715,-0.2702,-0.2702,-0.2702,-0.2704,0,0,0,0,0,0,-0.2759,-0.2757,-0.2754,-0.2748,-0.2745,-0.2736,-0.2736,-0.2735,-0.2731,-0.2731,-0.2725,-0.2724,-0.2721,-0.2716,-0.2715,-0.2713,-0.2714,-0.2702,-0.2702,-0.2702,-0.2704,-0.2704,-0.2704,0,0,0,0,0,-0.276,-0.2755,-0.2754,-0.2752,-0.2742,-0.2736,-0.2735,-0.2731,-0.2731,-0.2729,-0.2726,-0.2725,-0.2714,-0.2715,-0.2714,-0.2713,-0.2703,-0.2702,-0.2702,-0.2704,-0.2704,-0.2704,0,0,0,0,0,0,-0.2762,-0.2754,-0.2753,-0.2746,-0.2742,-0.2735,-0.2733,-0.2731,-0.2727,-0.2727,-0.2723,-0.2722,-0.2717,-0.2714,-0.2716,-0.2709,-0.2709,-0.2708,-0.2711,-0.271,-0.271,-0.2711,-0.2714,0,0,0,0,0,-0.2762,-0.2757,-0.2751,-0.2745,-0.2743,-0.2738,-0.2736,-0.2733,-0.2729,-0.2727,-0.2723,-0.2719,-0.2715,-0.2713,-0.2709,-0.2704,-0.2703,-0.2702,-0.2702,-0.2702,-0.2702,-0.27,-0.27,-0.2702,-0.2702,-0.2702,0,0,-0.2761,-0.2756,-0.2754,-0.2746,-0.2742,-0.2738,-0.2737,-0.2732,-0.2729,-0.2726,-0.2721,-0.2719,-0.2714,-0.271,-0.2707,-0.2707,-0.2702,-0.2702,-0.2702,-0.2702,-0.27,-0.27,-0.27,-0.2702,-0.2702,-0.2702,0,0,-0.2758,-0.2754,-0.2749,-0.2746,-0.274,-0.2737,-0.2736,-0.273,-0.2728,-0.2723,-0.2721,-0.2718,-0.2711,-0.2708,-0.2706,-0.2703,-0.2702,-0.2702,-0.2702,-0.27,-0.27,-0.27,-0.27,-0.27,-0.2702,-0.2702,-0.2702,0,-0.2758,-0.2751,-0.2747,-0.2743,-0.274,-0.2737,-0.2733,-0.273,-0.2724,-0.2722,-0.2722,-0.2714,-0.2711,-0.2706,-0.2705,-0.2703,-0.2703,-0.2703,-0.2701,-0.27,-0.27,-0.27,-0.27,-0.2702,-0.2702,-0.2702,-0.2702,0,-0.2752,-0.2747,-0.2745,-0.2738,-0.2735,-0.2731,-0.2727,-0.2725,-0.2723,-0.2721,-0.2716,-0.2712,-0.2708,-0.2707,-0.2705,-0.2702,-0.2702,-0.2701,-0.2701,-0.27,-0.27,-0.27,-0.2702,-0.2702,-0.2702,-0.2702,0,0,-0.2749,-0.2742,-0.2741,-0.2739,-0.2733,-0.273,-0.2726,-0.2722,-0.272,-0.2716,-0.2713,-0.2708,-0.2708,-0.2705,-0.2703,-0.2701,-0.2701,-0.2701,-0.2701,-0.2701,-0.2698,-0.2699,-0.2698,-0.27,-0.27,-0.27,-0.2698,0,-0.2746,-0.2738,-0.2736,-0.273,-0.2726,-0.2724,-0.2721,-0.2718,-0.2716,-0.2713,-0.271,-0.2707,-0.2706,-0.2705,-0.2703,-0.2701,-0.27,-0.2701,-0.2698,-0.2698,-0.2699,-0.2698,-0.2699,-0.2698,-0.2698,-0.2698,-0.2698,0,-0.274,-0.2737,-0.2731,-0.2727,-0.2725,-0.2722,-0.2719,-0.2715,-0.2712,-0.2711,-0.2708,-0.2707,-0.2704,-0.2704,-0.27,-0.2701,-0.2699,-0.2698,-0.2698,-0.2698,-0.2698,-0.2698,-0.2697,-0.2697,-0.2698,-0.2698,-0.2698,0,-0.274,-0.2733,-0.2729,-0.2727,-0.2722,-0.272,-0.2718,-0.2715,-0.2713,-0.271,-0.2709,-0.2705,-0.2704,-0.2701,-0.2699,-0.2699,-0.2696,-0.2696,-0.2695,-0.2695,-0.2695,-0.2695,-0.2694,-0.2693,-0.2693,-0.2693,-0.2693,0,-0.2736,-0.2733,-0.2729,-0.2727,-0.2723,-0.272,-0.2717,-0.2715,-0.2712,-0.271,-0.2708,-0.2706,-0.2703,-0.2701,-0.2699,-0.2697,-0.2696,-0.2695,-0.2695,-0.2695,-0.2696,-0.2694,-0.2695,-0.2693,-0.2693,-0.2693,-0.2693,0,-0.2735,-0.2732,-0.2728,-0.2724,-0.2722,-0.272,-0.2717,-0.2715,-0.2713,-0.271,-0.2709,-0.2706,-0.2703,-0.2701,-0.2698,-0.2697,-0.2694,-0.2694,-0.2695,-0.2695,-0.2695,-0.2695,-0.2693,-0.2693,-0.2693,-0.2693,-0.2693,0,-0.2733,-0.2731,-0.2726,-0.2725,-0.2723,-0.272,-0.2718,-0.2715,-0.2713,-0.271,-0.2708,-0.2706,-0.2703,-0.2699,-0.2697,-0.2695,-0.2694,-0.2694,-0.2694,-0.2695,-0.2695,-0.2695,-0.2695,-0.2694,-0.2694,-0.2694,-0.2694,0,-0.2731,-0.2729,-0.2726,-0.2723,-0.2721,-0.2718,-0.2716,-0.2715,-0.2712,-0.271,-0.2707,-0.2705,-0.2702,-0.27,-0.2697,-0.2695,-0.2694,-0.2694,-0.2694,-0.2695,-0.2696,-0.2696,-0.2696,-0.2694,-0.2694,-0.2694,-0.2694,-0.2694,-0.2729,-0.2727,-0.2724,-0.2721,-0.2719,-0.2717,-0.2715,-0.2713,-0.2711,-0.2708,-0.2707,-0.2704,-0.2702,-0.2698,-0.2697,-0.2695,-0.2695,-0.2695,-0.2694,-0.2694,-0.2695,-0.2696,-0.2695,-0.2695,-0.2695,-0.2695,-0.2695,0,-0.2727,-0.2725,-0.2722,-0.2719,-0.2717,-0.2716,-0.2714,-0.2712,-0.271,-0.2708,-0.2705,-0.2703,-0.2701,-0.2699,-0.2696,-0.2696,-0.2695,-0.2695,-0.2695,-0.2695,-0.2695,-0.2695,-0.2696,-0.2696,-0.2696,-0.2696,-0.2696,-0.2696,-0.2725,-0.2722,-0.2721,-0.2717,-0.2716,-0.2713,-0.2712,-0.271,-0.2709,-0.2706,-0.2704,-0.2702,-0.2701,-0.2698,-0.2697,-0.2696,-0.2696,-0.2696,-0.2695,-0.2695,-0.2695,-0.2695,-0.2696,-0.2696,-0.2696,-0.2696,-0.2696,-0.2696]},{"header":{"parameterUnit":"m.s-1","parameterCategory":1,"la1":30.2991,"la2":30.254,"lo1":-89.0895,"lo2":-89.0444,"dy":0.0017,"dx":0.0017,"nx":28,"ny":28,"refTime":"2025-04-16T09:00:00:Z","depth":0,"parameterNumber":3,"parameterNumberName":"V-component_of_WINDS"},"data":[0,0,0,0,0,0,0,0,0,0,0,0,0,0,0,0,0,0,0,0,0,0,0,0,0,0,0,0,0,0,0,0,0,0,0,0,0,0,0,0,0,0,0,0,0,0,0,0,0,0,0,0,0,0,0,0,0,0,6.0877,6.0878,0,6.0996,6.0997,6.0999,6.0954,6.0951,6.0948,6.0946,6.106,6.1065,6.1071,0,0,0,0,0,0,0,0,0,0,0,0,0,6.0599,6.0604,6.0876,6.0878,6.088,6.0996,6.0997,6.0999,6.0954,6.0951,6.0948,6.0945,6.1058,6.1064,6.1071,0,0,0,0,0,0,0,0,0,0,0,0,0,6.0719,6.0606,6.0876,6.0871,6.0872,6.0996,6.0997,6.0999,6.0955,6.0951,6.0947,6.0943,6.1056,6.1064,6.1072,6.1205,0,0,6.1098,6.1101,0,0,0,0,0,0,0,0,6.0712,6.0729,6.0871,6.0872,6.0873,6.0956,6.0941,6.1068,6.0956,6.0923,6.0946,6.0941,6.1028,6.1038,6.1069,6.121,6.1215,6.1098,6.1103,6.1107,6.1109,0,0,0,0,0,0,0,6.0704,6.0724,6.0923,6.0873,6.0874,6.086,6.0872,6.0965,6.0997,6.0926,6.0923,6.0938,6.1028,6.1061,6.1072,6.1217,6.1098,6.1105,6.1111,6.1114,6.1468,6.1472,0,0,0,0,0,0,6.0696,6.0717,6.092,6.0927,6.0781,6.0868,6.0882,6.0933,6.0996,6.1001,6.0941,6.0936,6.1049,6.1062,6.1076,6.1233,6.1107,6.1115,6.1119,6.1463,6.1469,6.1473,0,0,0,0,0,0,6.0691,6.0715,6.0915,6.0821,6.0846,6.0877,6.0935,6.0938,6.0972,6.1008,6.1012,6.0971,6.1047,6.1064,6.1173,6.1236,6.1118,6.1126,6.1458,6.1465,6.1471,6.1549,0,0,0,0,0,0,6.0683,6.0713,6.0767,6.0823,6.0851,6.1013,6.0939,6.0943,6.0987,6.0981,6.1036,6.1041,6.1045,6.116,6.1181,6.1245,6.1132,6.1453,6.1461,6.1469,6.1541,6.1558,6.1572,0,0,0,0,0,6.0673,6.0783,6.077,6.0794,6.0919,6.1017,6.1033,6.1037,6.0993,6.1044,6.1067,6.104,6.1226,6.1172,6.1195,6.1262,6.1449,6.1459,6.1468,6.1534,6.1554,6.1571,0,0,0,0,0,0,6.0731,6.079,6.0776,6.0908,6.0958,6.101,6.1076,6.1059,6.112,6.1111,6.1111,6.1124,6.1235,6.126,6.1199,6.1392,6.133,6.1345,6.1372,6.1392,6.1407,6.1398,6.1139,0,0,0,0,0,6.0759,6.0837,6.0884,6.0995,6.1021,6.1044,6.1087,6.1086,6.1137,6.1157,6.1187,6.1235,6.1304,6.1349,6.1415,6.1544,6.1554,6.1602,6.1617,6.1629,6.1642,6.1709,6.173,6.1506,6.1506,6.1506,0,0,6.0818,6.086,6.0909,6.1008,6.1046,6.1124,6.1062,6.1147,6.1203,6.1169,6.1274,6.1298,6.135,6.1469,6.1523,6.1493,6.1706,6.1642,6.1652,6.1658,6.1721,6.1742,6.1761,6.1513,6.1511,6.151,0,0,6.0964,6.1005,6.1102,6.1142,6.1202,6.1216,6.1239,6.1293,6.1308,6.1414,6.1388,6.1453,6.1573,6.1611,6.1646,6.1804,6.178,6.1825,6.1905,6.197,6.1987,6.2003,6.2057,6.2076,6.1837,6.1837,6.1838,0,6.1028,6.1148,6.1152,6.124,6.1282,6.1256,6.1351,6.1389,6.1466,6.1494,6.146,6.1608,6.1642,6.1768,6.1806,6.1836,6.1859,6.1818,6.1985,6.2001,6.2015,6.2066,6.2087,6.1842,6.1842,6.1841,6.1841,0,6.1222,6.1305,6.1374,6.1452,6.1502,6.1593,6.1608,6.1657,6.1651,6.1668,6.1773,6.1813,6.1885,6.1915,6.1909,6.2039,6.2018,6.1985,6.1922,6.2041,6.2089,6.2109,6.1849,6.1848,6.1846,6.1845,0,0,6.1409,6.1487,6.1513,6.1546,6.1609,6.1671,6.1759,6.1831,6.1872,6.1926,6.1996,6.2097,6.2066,6.2106,6.2103,6.2161,6.228,6.212,6.2121,6.2146,6.2422,6.2446,6.2469,6.2265,6.2268,6.2272,6.2417,0,6.1558,6.1716,6.1721,6.1863,6.1937,6.1912,6.1987,6.2032,6.2049,6.2112,6.2129,6.22,6.2155,6.2178,6.2234,6.2254,6.2335,6.2243,6.2327,6.233,6.2314,6.2494,6.252,6.2656,6.2436,6.2439,6.2441,0,6.1754,6.1816,6.1966,6.2016,6.2047,6.2116,6.2181,6.2242,6.2291,6.2298,6.2342,6.2331,6.2416,6.2351,6.2466,6.2404,6.2438,6.2453,6.2458,6.2464,6.2392,6.2504,6.2699,6.2719,6.2471,6.2469,6.2467,0,6.1872,6.1992,6.2097,6.2127,6.2189,6.2237,6.2264,6.2309,6.2351,6.2407,6.2434,6.2498,6.2533,6.2581,6.2586,6.2539,6.27,6.2637,6.2706,6.2706,6.2741,6.2738,6.2943,6.2766,6.2766,6.2765,6.2765,0,6.2038,6.213,6.2151,6.2215,6.2315,6.2319,6.2418,6.2441,6.248,6.2546,6.2527,6.2588,6.2591,6.2653,6.2656,6.2749,6.2765,6.2772,6.2771,6.2773,6.2772,6.2794,6.2784,6.2771,6.2769,6.2768,6.2767,0,6.2187,6.2205,6.2317,6.2366,6.2381,6.2452,6.2493,6.2552,6.2567,6.2649,6.2669,6.2691,6.2762,6.2772,6.2854,6.2856,6.2967,6.2958,6.2952,6.295,6.3018,6.3011,6.3242,6.3272,6.3078,6.3079,6.3081,0,6.2291,6.2361,6.2418,6.2462,6.2493,6.2563,6.2606,6.2611,6.2657,6.2716,6.2767,6.2837,6.2892,6.3006,6.3027,6.3089,6.308,6.3157,6.3089,6.3087,6.3078,6.3073,6.3079,6.3169,6.3172,6.3173,6.3175,0,6.2472,6.2477,6.2542,6.261,6.2663,6.2715,6.2765,6.2801,6.2811,6.2862,6.2936,6.2979,6.3064,6.3131,6.3192,6.3216,6.3196,6.3196,6.3215,6.3216,6.3209,6.3212,6.2986,6.319,6.3189,6.3188,6.3187,6.3186,6.26,6.2661,6.271,6.2782,6.282,6.2866,6.2924,6.2946,6.3009,6.3079,6.3077,6.3157,6.32,6.3281,6.3309,6.3369,6.3343,6.3371,6.3378,6.3384,6.339,6.3201,6.338,6.338,6.3379,6.3379,6.3379,0,6.2779,6.2809,6.2876,6.2946,6.3002,6.2981,6.3034,6.308,6.3152,6.3196,6.3251,6.3333,6.3399,6.3425,6.3488,6.3531,6.3523,6.3547,6.3543,6.3548,6.3411,6.3387,6.3552,6.3552,6.3552,6.3552,6.3552,6.3552,6.2878,6.2979,6.2989,6.3106,6.3135,6.3215,6.3247,6.3288,6.3322,6.3416,6.3471,6.3489,6.3524,6.3589,6.3647,6.3652,6.3675,6.3703,6.3704,6.3575,6.3558,6.3541,6.3519,6.3708,6.3709,6.3836,6.3837,6.3838]}]]